RCF953 UUEE-EDFH

Flight info

Callsign RCF953
Flight time 2h 46m
Altitude 36000
Route LIDRI3J LIDRI T781 REPNU N858 VEPIS DCT LAFAT/N0477F360 DCT VABER L29 SUWGI T727 DENKO N858 SUBIX Z20 MAG/N0475F300 Z20 ORTAG/N0427F220 T177 ESEGU Z20 RANIN/N0415F200 Z658 BIGSU/N0372F120 Z658 EMGOD EMGOD3K
Aircraft MD11/H-SDE1E2E3FGHIJ2J3J4J5M1RWXY/LB1D1

Departure

Time 2026-05-07 10:46
Airport Sheremetyevo International Airport (UUEE)

Arrival

Time 2026-05-07 13:32
Airport Frankfurt-Hahn Airport (EDFH)
Time Latitude Longitude Altitude Speed Heading
2026-05-07 10:06 55.98183 37.42820 646 ft 0 kts 345°
2026-05-07 10:34 55.98167 37.42828 647 ft 2 kts 345°
2026-05-07 10:34 55.98151 37.42836 649 ft 2 kts 345°
2026-05-07 10:35 55.98135 37.42843 649 ft 2 kts 345°
2026-05-07 10:35 55.98119 37.42851 650 ft 2 kts 345°
2026-05-07 10:35 55.98103 37.42854 650 ft 2 kts 24°
2026-05-07 10:35 55.98089 37.42839 651 ft 2 kts 50°
2026-05-07 10:36 55.98080 37.42816 649 ft 2 kts 68°
2026-05-07 10:36 55.98077 37.42806 650 ft 0 kts 73°
2026-05-07 10:38 55.98078 37.42808 646 ft 0 kts 73°
2026-05-07 10:39 55.98078 37.42811 646 ft 0 kts 73°
2026-05-07 10:39 55.98080 37.42824 647 ft 3 kts 73°
2026-05-07 10:39 55.98090 37.42883 646 ft 7 kts 75°
2026-05-07 10:39 55.98106 37.42990 646 ft 11 kts 75°
2026-05-07 10:40 55.98124 37.43110 646 ft 11 kts 75°
2026-05-07 10:40 55.98134 37.43225 646 ft 7 kts 98°
2026-05-07 10:40 55.98114 37.43275 648 ft 4 kts 140°
2026-05-07 10:40 55.98097 37.43286 646 ft 3 kts 163°
2026-05-07 10:41 55.98050 37.43310 646 ft 11 kts 164°
2026-05-07 10:41 55.97980 37.43348 646 ft 8 kts 154°
2026-05-07 10:41 55.97962 37.43415 649 ft 6 kts 92°
2026-05-07 10:41 55.97974 37.43524 646 ft 12 kts 76°
2026-05-07 10:42 55.97970 37.43598 646 ft 2 kts 127°
2026-05-07 10:42 55.97950 37.43617 647 ft 5 kts 158°
2026-05-07 10:42 55.97915 37.43661 647 ft 6 kts 118°
2026-05-07 10:42 55.97921 37.43759 649 ft 11 kts 75°
2026-05-07 10:43 55.97942 37.43903 647 ft 10 kts 75°
2026-05-07 10:43 55.97947 37.43981 647 ft 4 kts 99°
2026-05-07 10:43 55.97935 37.44015 647 ft 3 kts 127°
2026-05-07 10:43 55.97915 37.44039 647 ft 4 kts 156°
2026-05-07 10:44 55.97895 37.44050 647 ft 6 kts 164°
2026-05-07 10:44 55.97853 37.44069 647 ft 4 kts 165°
2026-05-07 10:44 55.97806 37.44072 647 ft 7 kts 196°
2026-05-07 10:44 55.97782 37.44035 647 ft 2 kts 237°
2026-05-07 10:45 55.97762 37.43900 648 ft 38 kts 256°
2026-05-07 10:45 55.97685 37.43379 648 ft 92 kts 255°
2026-05-07 10:45 55.97457 37.41853 652 ft 156 kts 255°
2026-05-07 10:45 55.97157 37.39866 1138 ft 173 kts 253°
2026-05-07 10:46 55.96854 37.37852 2143 ft 161 kts 256°
2026-05-07 10:46 55.96542 37.35889 2930 ft 172 kts 254°
2026-05-07 10:46 55.96193 37.33798 3577 ft 180 kts 253°
2026-05-07 10:46 55.95805 37.31623 4280 ft 186 kts 252°
2026-05-07 10:47 55.95408 37.29373 4859 ft 203 kts 253°
2026-05-07 10:47 55.94996 37.26764 5072 ft 233 kts 256°
2026-05-07 10:47 55.94569 37.23844 5465 ft 247 kts 256°
2026-05-07 10:47 55.94129 37.20871 6401 ft 247 kts 256°
2026-05-07 10:48 55.93683 37.17914 7428 ft 246 kts 256°
2026-05-07 10:48 55.93231 37.14946 8389 ft 249 kts 255°
2026-05-07 10:48 55.92771 37.11951 9317 ft 251 kts 255°
2026-05-07 10:48 55.92311 37.08980 10174 ft 254 kts 255°
2026-05-07 10:49 55.91834 37.05919 10964 ft 257 kts 255°
2026-05-07 10:49 55.91349 37.02814 11738 ft 261 kts 256°
2026-05-07 10:49 55.91073 36.99589 12508 ft 266 kts 266°
2026-05-07 10:49 55.91036 36.96269 13291 ft 269 kts 269°
2026-05-07 10:50 55.91056 36.92899 14039 ft 273 kts 270°
2026-05-07 10:50 55.91087 36.89530 14733 ft 278 kts 270°
2026-05-07 10:50 55.91121 36.86063 15437 ft 282 kts 270°
2026-05-07 10:50 55.91155 36.82527 16178 ft 285 kts 270°
2026-05-07 10:51 55.91189 36.78971 16911 ft 289 kts 270°
2026-05-07 10:51 55.91069 36.75366 17568 ft 295 kts 262°
2026-05-07 10:51 55.90665 36.71647 17725 ft 317 kts 258°
2026-05-07 10:51 55.90131 36.67712 17867 ft 337 kts 256°
2026-05-07 10:52 55.89538 36.63547 18009 ft 356 kts 256°
2026-05-07 10:52 55.88912 36.59173 18174 ft 372 kts 256°
2026-05-07 10:52 55.88270 36.54667 18642 ft 376 kts 256°
2026-05-07 10:52 55.87634 36.50195 19170 ft 379 kts 256°
2026-05-07 10:53 55.86998 36.45628 19690 ft 381 kts 257°
2026-05-07 10:53 55.86401 36.41013 20202 ft 384 kts 258°
2026-05-07 10:53 55.85823 36.36354 20708 ft 387 kts 258°
2026-05-07 10:53 55.85250 36.31660 21214 ft 390 kts 258°
2026-05-07 10:54 55.84672 36.26924 21747 ft 392 kts 258°
2026-05-07 10:54 55.84090 36.22169 22281 ft 395 kts 258°
2026-05-07 10:54 55.83501 36.17376 22817 ft 398 kts 258°
2026-05-07 10:54 55.82903 36.12530 23360 ft 401 kts 258°
2026-05-07 10:55 55.82301 36.07671 23846 ft 404 kts 258°
2026-05-07 10:55 55.81691 36.02785 24327 ft 406 kts 258°
2026-05-07 10:55 55.81066 35.97865 24823 ft 409 kts 258°
2026-05-07 10:55 55.80440 35.92976 25297 ft 412 kts 258°
2026-05-07 10:56 55.79801 35.87997 25787 ft 414 kts 258°
2026-05-07 10:56 55.79158 35.82989 26283 ft 417 kts 258°
2026-05-07 10:56 55.78511 35.77942 26756 ft 420 kts 258°
2026-05-07 10:56 55.77860 35.72875 27233 ft 423 kts 258°
2026-05-07 10:57 55.77201 35.67763 27707 ft 426 kts 258°
2026-05-07 10:57 55.76536 35.62611 28163 ft 429 kts 258°
2026-05-07 10:57 55.75866 35.57437 28616 ft 431 kts 259°
2026-05-07 10:57 55.75326 35.52188 29044 ft 433 kts 263°
2026-05-07 10:58 55.74991 35.46857 29491 ft 435 kts 266°
2026-05-07 10:58 55.74753 35.41480 29901 ft 438 kts 267°
2026-05-07 10:58 55.74545 35.36066 30236 ft 441 kts 267°
2026-05-07 10:58 55.74341 35.30707 30576 ft 442 kts 267°
2026-05-07 10:59 55.74123 35.25254 30985 ft 442 kts 267°
2026-05-07 10:59 55.73895 35.19826 31418 ft 441 kts 267°
2026-05-07 10:59 55.73658 35.14394 31845 ft 440 kts 267°
2026-05-07 10:59 55.73415 35.08977 32252 ft 439 kts 267°
2026-05-07 11:00 55.73165 35.03574 32661 ft 438 kts 267°
2026-05-07 11:00 55.72912 34.98195 33060 ft 437 kts 267°
2026-05-07 11:00 55.72661 34.92822 33446 ft 436 kts 267°
2026-05-07 11:00 55.72412 34.87460 33812 ft 435 kts 267°
2026-05-07 11:01 55.72166 34.82182 34112 ft 435 kts 267°
2026-05-07 11:01 55.71916 34.76835 34388 ft 434 kts 267°
2026-05-07 11:01 55.71666 34.71505 34657 ft 434 kts 267°
2026-05-07 11:01 55.71412 34.66157 34918 ft 434 kts 267°
2026-05-07 11:02 55.71114 34.60825 35135 ft 435 kts 263°
2026-05-07 11:02 55.70448 34.55579 35386 ft 437 kts 256°
2026-05-07 11:02 55.69496 34.50459 35613 ft 438 kts 252°
2026-05-07 11:02 55.68428 34.45393 35803 ft 439 kts 251°
2026-05-07 11:03 55.66253 34.35338 35863 ft 440 kts 251°
2026-05-07 11:03 55.64104 34.25159 35867 ft 440 kts 252°
2026-05-07 11:04 55.61990 34.14992 35871 ft 440 kts 252°
2026-05-07 11:04 55.59876 34.04826 35869 ft 440 kts 252°
2026-05-07 11:05 55.57766 33.94730 35871 ft 440 kts 252°
2026-05-07 11:05 55.55630 33.84561 35869 ft 440 kts 251°
2026-05-07 11:06 55.53488 33.74424 35867 ft 441 kts 251°
2026-05-07 11:06 55.51342 33.64266 35865 ft 440 kts 252°
2026-05-07 11:07 55.49612 33.53999 35865 ft 439 kts 257°
2026-05-07 11:07 55.48122 33.43548 35867 ft 439 kts 257°
2026-05-07 11:08 55.46641 33.33095 35863 ft 439 kts 257°
2026-05-07 11:08 55.45130 33.22655 35864 ft 439 kts 257°
2026-05-07 11:09 55.43602 33.12232 35864 ft 439 kts 257°
2026-05-07 11:09 55.42072 33.01878 35864 ft 439 kts 256°
2026-05-07 11:10 55.40526 32.91475 35864 ft 439 kts 256°
2026-05-07 11:10 55.38980 32.81145 35866 ft 439 kts 256°
2026-05-07 11:11 55.37417 32.70764 35862 ft 438 kts 256°
2026-05-07 11:11 55.35847 32.60409 35861 ft 438 kts 256°
2026-05-07 11:12 55.34269 32.50059 35862 ft 438 kts 256°
2026-05-07 11:12 55.32688 32.39759 35860 ft 438 kts 256°
2026-05-07 11:13 55.31090 32.29417 35862 ft 438 kts 256°
2026-05-07 11:13 55.29470 32.19100 35863 ft 438 kts 255°
2026-05-07 11:14 55.27817 32.08883 35862 ft 438 kts 255°
2026-05-07 11:14 55.26172 31.98593 35859 ft 437 kts 255°
2026-05-07 11:15 55.24538 31.88301 35856 ft 437 kts 255°
2026-05-07 11:15 55.22915 31.78107 35858 ft 437 kts 255°
2026-05-07 11:16 55.21270 31.67840 35854 ft 437 kts 255°
2026-05-07 11:16 55.19616 31.57584 35854 ft 437 kts 255°
2026-05-07 11:17 55.17966 31.47412 35851 ft 436 kts 255°
2026-05-07 11:17 55.16297 31.37188 35851 ft 436 kts 255°
2026-05-07 11:18 55.14620 31.26971 35851 ft 436 kts 255°
2026-05-07 11:18 55.12947 31.16841 35847 ft 436 kts 255°
2026-05-07 11:19 55.11253 31.06646 35847 ft 436 kts 254°
2026-05-07 11:19 55.09721 30.96400 35846 ft 436 kts 261°
2026-05-07 11:20 55.09188 30.85917 35842 ft 436 kts 267°
2026-05-07 11:20 55.08947 30.75335 35837 ft 436 kts 267°
2026-05-07 11:21 55.08671 30.64736 35832 ft 435 kts 266°
2026-05-07 11:21 55.08350 30.54255 35830 ft 435 kts 266°
2026-05-07 11:22 55.08005 30.43689 35830 ft 435 kts 266°
2026-05-07 11:22 55.07648 30.33117 35828 ft 435 kts 266°
2026-05-07 11:23 55.07286 30.22641 35830 ft 435 kts 266°
2026-05-07 11:23 55.06914 30.12103 35831 ft 435 kts 265°
2026-05-07 11:24 55.06533 30.01578 35831 ft 435 kts 265°
2026-05-07 11:24 55.06141 29.91029 35829 ft 435 kts 265°
2026-05-07 11:25 55.05744 29.80564 35830 ft 434 kts 265°
2026-05-07 11:25 55.05335 29.70035 35829 ft 434 kts 265°
2026-05-07 11:26 55.04917 29.59521 35831 ft 434 kts 265°
2026-05-07 11:26 55.04471 29.49092 35830 ft 434 kts 264°
2026-05-07 11:27 55.03983 29.38589 35828 ft 434 kts 264°
2026-05-07 11:27 55.03517 29.28081 35831 ft 434 kts 264°
2026-05-07 11:28 55.03063 29.17650 35833 ft 433 kts 264°
2026-05-07 11:28 55.02601 29.07152 35829 ft 433 kts 264°
2026-05-07 11:29 55.02132 28.96687 35831 ft 433 kts 264°
2026-05-07 11:29 55.01652 28.86202 35827 ft 433 kts 264°
2026-05-07 11:30 55.01167 28.75810 35831 ft 433 kts 264°
2026-05-07 11:30 55.00669 28.65331 35830 ft 433 kts 264°
2026-05-07 11:31 55.00161 28.54857 35829 ft 433 kts 264°
2026-05-07 11:31 54.99650 28.44473 35833 ft 433 kts 264°
2026-05-07 11:32 54.98868 28.28935 35832 ft 427 kts 263°
2026-05-07 11:33 54.98337 28.18634 35835 ft 427 kts 263°
2026-05-07 11:33 54.97792 28.08334 35837 ft 427 kts 263°
2026-05-07 11:34 54.97190 27.98044 35836 ft 427 kts 262°
2026-05-07 11:34 54.96602 27.87741 35837 ft 427 kts 262°
2026-05-07 11:35 54.96033 27.77515 35841 ft 427 kts 263°
2026-05-07 11:35 54.95460 27.67227 35840 ft 427 kts 262°
2026-05-07 11:36 54.94973 27.58601 35839 ft 427 kts 262°
2026-05-07 11:36 54.94386 27.48363 35845 ft 427 kts 262°
2026-05-07 11:37 54.93786 27.38057 35846 ft 428 kts 262°
2026-05-07 11:37 54.93178 27.27761 35851 ft 428 kts 262°
2026-05-07 11:38 54.92561 27.17462 35846 ft 428 kts 262°
2026-05-07 11:38 54.91935 27.07162 35851 ft 428 kts 262°
2026-05-07 11:39 54.91304 26.96929 35854 ft 428 kts 262°
2026-05-07 11:39 54.90660 26.86627 35852 ft 428 kts 262°
2026-05-07 11:40 54.90007 26.76332 35857 ft 428 kts 261°
2026-05-07 11:40 54.89345 26.66053 35861 ft 428 kts 261°
2026-05-07 11:41 54.88623 26.55761 35861 ft 428 kts 261°
2026-05-07 11:41 54.87909 26.45490 35861 ft 428 kts 261°
2026-05-07 11:42 54.87213 26.35217 35860 ft 428 kts 261°
2026-05-07 11:42 54.86521 26.25007 35861 ft 428 kts 261°
2026-05-07 11:43 54.85817 26.14740 35860 ft 428 kts 261°
2026-05-07 11:43 54.85104 26.04469 35861 ft 428 kts 261°
2026-05-07 11:44 54.84382 25.94202 35858 ft 428 kts 261°
2026-05-07 11:44 54.83650 25.83944 35862 ft 428 kts 260°
2026-05-07 11:45 54.82166 25.74007 35863 ft 425 kts 247°
2026-05-07 11:45 54.79758 25.64649 35870 ft 425 kts 244°
2026-05-07 11:46 54.77285 25.55410 35873 ft 425 kts 245°
2026-05-07 11:46 54.74848 25.46077 35881 ft 425 kts 245°
2026-05-07 11:47 54.72430 25.36711 35882 ft 425 kts 245°
2026-05-07 11:47 54.70015 25.27365 35884 ft 425 kts 245°
2026-05-07 11:48 54.67609 25.18092 35885 ft 425 kts 245°
2026-05-07 11:48 54.65179 25.08773 35881 ft 425 kts 245°
2026-05-07 11:49 54.62739 24.99452 35877 ft 425 kts 245°
2026-05-07 11:49 54.60293 24.90146 35876 ft 425 kts 245°
2026-05-07 11:50 54.57842 24.80859 35872 ft 425 kts 244°
2026-05-07 11:50 54.55395 24.71629 35872 ft 426 kts 244°
2026-05-07 11:51 54.52929 24.62359 35870 ft 426 kts 244°
2026-05-07 11:51 54.50448 24.53077 35874 ft 426 kts 244°
2026-05-07 11:52 54.47951 24.43845 35878 ft 426 kts 244°
2026-05-07 11:52 54.45419 24.34643 35877 ft 426 kts 244°
2026-05-07 11:53 54.42918 24.25476 35876 ft 426 kts 244°
2026-05-07 11:53 54.40410 24.16256 35881 ft 426 kts 244°
2026-05-07 11:54 54.37895 24.07033 35885 ft 426 kts 244°
2026-05-07 11:54 54.35377 23.97832 35892 ft 426 kts 244°
2026-05-07 11:55 54.32868 23.88703 35888 ft 426 kts 244°
2026-05-07 11:55 54.30331 23.79511 35893 ft 426 kts 243°
2026-05-07 11:56 54.27786 23.70328 35894 ft 426 kts 243°
2026-05-07 11:56 54.25240 23.61174 35901 ft 426 kts 243°
2026-05-07 11:57 54.22685 23.52024 35899 ft 426 kts 243°
2026-05-07 11:57 54.20139 23.42941 35900 ft 426 kts 243°
2026-05-07 11:58 54.17724 23.33675 35904 ft 427 kts 245°
2026-05-07 11:58 54.15433 23.24322 35903 ft 427 kts 246°
2026-05-07 11:59 54.13153 23.14950 35906 ft 427 kts 246°
2026-05-07 11:59 54.10865 23.05606 35909 ft 427 kts 245°
2026-05-07 12:00 54.08580 22.96330 35910 ft 427 kts 245°
2026-05-07 12:00 54.06446 22.86868 35911 ft 428 kts 251°
2026-05-07 12:01 54.04945 22.77043 35918 ft 430 kts 254°
2026-05-07 12:01 54.03572 22.67135 35917 ft 430 kts 254°
2026-05-07 12:02 54.02170 22.57255 35922 ft 429 kts 253°
2026-05-07 12:02 54.00736 22.47389 35924 ft 429 kts 253°
2026-05-07 12:03 53.99289 22.37541 35928 ft 429 kts 253°
2026-05-07 12:03 53.97834 22.27708 35934 ft 429 kts 253°
2026-05-07 12:04 53.96380 22.17938 35934 ft 429 kts 253°
2026-05-07 12:04 53.94909 22.08117 35936 ft 428 kts 253°
2026-05-07 12:05 53.93430 21.98302 35937 ft 428 kts 253°
2026-05-07 12:05 53.91954 21.88560 35932 ft 429 kts 253°
2026-05-07 12:06 53.90457 21.78744 35943 ft 429 kts 252°
2026-05-07 12:06 53.88954 21.68951 35940 ft 429 kts 252°
2026-05-07 12:07 53.87443 21.59162 35943 ft 429 kts 252°
2026-05-07 12:07 53.85905 21.49391 35950 ft 429 kts 252°
2026-05-07 12:08 53.84330 21.39633 35951 ft 429 kts 252°
2026-05-07 12:08 53.82775 21.29874 35954 ft 429 kts 252°
2026-05-07 12:09 53.81229 21.20171 35958 ft 429 kts 252°
2026-05-07 12:09 53.79670 21.10394 35957 ft 430 kts 252°
2026-05-07 12:10 53.78106 21.00616 35965 ft 430 kts 252°
2026-05-07 12:10 53.76547 20.90920 35962 ft 430 kts 251°
2026-05-07 12:11 53.74971 20.81171 35966 ft 430 kts 251°
2026-05-07 12:11 53.73385 20.71423 35963 ft 430 kts 251°
2026-05-07 12:12 53.71791 20.61679 35969 ft 430 kts 251°
2026-05-07 12:12 53.70186 20.51930 35970 ft 430 kts 251°
2026-05-07 12:13 53.68547 20.42196 35973 ft 431 kts 251°
2026-05-07 12:13 53.66909 20.32474 35978 ft 431 kts 251°
2026-05-07 12:14 53.65286 20.22811 35982 ft 431 kts 251°
2026-05-07 12:14 53.63649 20.13089 35977 ft 431 kts 251°
2026-05-07 12:15 53.62002 20.03354 35980 ft 432 kts 251°
2026-05-07 12:15 53.60347 19.93628 35985 ft 432 kts 251°
2026-05-07 12:16 53.58682 19.83899 35986 ft 432 kts 251°
2026-05-07 12:16 53.57017 19.74227 35984 ft 432 kts 250°
2026-05-07 12:17 53.55336 19.64515 35991 ft 432 kts 250°
2026-05-07 12:17 53.53643 19.54783 35982 ft 433 kts 250°
2026-05-07 12:18 53.51956 19.45140 35987 ft 433 kts 250°
2026-05-07 12:18 53.50247 19.35427 35987 ft 433 kts 250°
2026-05-07 12:19 53.48497 19.25730 35996 ft 433 kts 250°
2026-05-07 12:19 53.46741 19.16043 35994 ft 434 kts 250°
2026-05-07 12:20 53.45006 19.06388 36000 ft 434 kts 250°
2026-05-07 12:20 53.43263 18.96682 35984 ft 434 kts 250°
2026-05-07 12:21 53.41513 18.86978 36002 ft 435 kts 250°
2026-05-07 12:21 53.39751 18.77267 36004 ft 435 kts 250°
2026-05-07 12:22 53.37993 18.67626 35999 ft 435 kts 250°
2026-05-07 12:22 53.36213 18.57923 35999 ft 436 kts 250°
2026-05-07 12:23 53.34426 18.48226 36001 ft 436 kts 250°
2026-05-07 12:23 53.32933 18.40163 36004 ft 436 kts 250°
2026-05-07 12:24 53.31128 18.30467 35999 ft 437 kts 249°
2026-05-07 12:24 53.29314 18.20770 35998 ft 437 kts 249°
2026-05-07 12:25 53.27489 18.11064 35996 ft 438 kts 249°
2026-05-07 12:25 53.25655 18.01364 35996 ft 438 kts 249°
2026-05-07 12:26 53.23767 17.91679 35996 ft 438 kts 249°
2026-05-07 12:26 53.21880 17.81986 35996 ft 439 kts 249°
2026-05-07 12:27 53.20017 17.72336 35999 ft 440 kts 249°
2026-05-07 12:27 53.18143 17.62623 36001 ft 440 kts 249°
2026-05-07 12:28 53.16261 17.52916 36006 ft 440 kts 249°
2026-05-07 12:28 53.14367 17.43194 36010 ft 441 kts 249°
2026-05-07 12:29 53.12462 17.33471 36010 ft 442 kts 249°
2026-05-07 12:29 53.10546 17.23743 36014 ft 442 kts 249°
2026-05-07 12:30 53.08622 17.14020 36013 ft 443 kts 249°
2026-05-07 12:30 53.06665 17.04314 36015 ft 443 kts 248°
2026-05-07 12:31 53.04714 16.94643 36017 ft 444 kts 249°
2026-05-07 12:31 53.02756 16.84901 36017 ft 445 kts 249°
2026-05-07 12:32 53.00793 16.75141 36018 ft 445 kts 249°
2026-05-07 12:32 52.98817 16.65372 36020 ft 446 kts 248°
2026-05-07 12:33 52.95836 16.50720 36020 ft 447 kts 248°
2026-05-07 12:33 52.93845 16.40998 36020 ft 447 kts 248°
2026-05-07 12:34 52.91835 16.31228 36018 ft 448 kts 248°
2026-05-07 12:34 52.89813 16.21450 36020 ft 449 kts 248°
2026-05-07 12:35 52.87779 16.11666 36023 ft 449 kts 248°
2026-05-07 12:35 52.85733 16.01870 36016 ft 450 kts 248°
2026-05-07 12:36 52.83679 15.92079 36020 ft 451 kts 248°
2026-05-07 12:36 52.81407 15.82512 36022 ft 448 kts 241°
2026-05-07 12:37 52.78396 15.73494 36020 ft 448 kts 237°
2026-05-07 12:37 52.75254 15.64601 36023 ft 448 kts 237°
2026-05-07 12:38 52.72143 15.55661 36021 ft 449 kts 238°
2026-05-07 12:38 52.69056 15.46705 36024 ft 449 kts 238°
2026-05-07 12:39 52.65986 15.37804 36023 ft 450 kts 238°
2026-05-07 12:39 52.62883 15.28838 36020 ft 450 kts 238°
2026-05-07 12:40 52.59771 15.19885 36022 ft 451 kts 238°
2026-05-07 12:40 52.56643 15.10918 36023 ft 452 kts 237°
2026-05-07 12:41 52.53506 15.01958 36015 ft 452 kts 237°
2026-05-07 12:41 52.50361 14.93004 36017 ft 453 kts 237°
2026-05-07 12:42 52.47228 14.84119 36019 ft 453 kts 237°
2026-05-07 12:42 52.44058 14.75163 36016 ft 454 kts 237°
2026-05-07 12:43 52.40881 14.66226 36015 ft 454 kts 237°
2026-05-07 12:43 52.37848 14.57147 36015 ft 457 kts 246°
2026-05-07 12:44 52.36204 14.47032 36019 ft 462 kts 256°
2026-05-07 12:44 52.35080 14.36711 36019 ft 463 kts 257°
2026-05-07 12:45 52.33884 14.26366 36015 ft 463 kts 256°
2026-05-07 12:45 52.32598 14.16060 36016 ft 463 kts 256°
2026-05-07 12:46 52.31264 14.05752 36018 ft 463 kts 255°
2026-05-07 12:46 52.29906 13.95471 36027 ft 463 kts 255°
2026-05-07 12:47 52.28543 13.85148 36032 ft 464 kts 255°
2026-05-07 12:47 52.27182 13.74856 36038 ft 464 kts 255°
2026-05-07 12:48 52.25815 13.64634 36048 ft 464 kts 255°
2026-05-07 12:48 52.24425 13.54252 36039 ft 465 kts 256°
2026-05-07 12:49 52.23049 13.44006 36041 ft 465 kts 256°
2026-05-07 12:49 52.21654 13.33675 36036 ft 466 kts 256°
2026-05-07 12:50 52.20251 13.23361 36039 ft 466 kts 256°
2026-05-07 12:50 52.18840 13.13066 36036 ft 466 kts 256°
2026-05-07 12:51 52.17421 13.02778 36026 ft 467 kts 256°
2026-05-07 12:51 52.15974 12.92462 36033 ft 467 kts 255°
2026-05-07 12:52 52.14500 12.82144 36030 ft 468 kts 255°
2026-05-07 12:52 52.13034 12.71827 36040 ft 468 kts 256°
2026-05-07 12:53 52.11559 12.61501 36035 ft 468 kts 256°
2026-05-07 12:53 52.10073 12.51174 36035 ft 468 kts 256°
2026-05-07 12:54 52.08594 12.40924 36034 ft 469 kts 256°
2026-05-07 12:54 52.07088 12.30614 36036 ft 469 kts 255°
2026-05-07 12:55 52.05577 12.20300 36038 ft 469 kts 256°
2026-05-07 12:55 52.04063 12.09982 36038 ft 469 kts 256°
2026-05-07 12:56 52.02541 11.99666 36038 ft 470 kts 256°
2026-05-07 12:56 52.01001 11.89329 36040 ft 470 kts 255°
2026-05-07 12:57 51.98692 11.79471 36041 ft 468 kts 239°
2026-05-07 12:57 51.94573 11.71452 36042 ft 467 kts 221°
2026-05-07 12:58 51.89541 11.64761 36048 ft 468 kts 218°
2026-05-07 12:58 51.84502 11.58067 36047 ft 467 kts 220°
2026-05-07 12:59 51.79570 11.51222 36047 ft 467 kts 221°
2026-05-07 12:59 51.74677 11.44323 36048 ft 467 kts 221°
2026-05-07 13:00 51.69820 11.37474 36043 ft 466 kts 221°
2026-05-07 13:00 51.64924 11.30600 36039 ft 466 kts 221°
2026-05-07 13:01 51.60030 11.23762 36036 ft 465 kts 221°
2026-05-07 13:01 51.55134 11.16942 36019 ft 465 kts 221°
2026-05-07 13:02 51.50243 11.10106 36014 ft 465 kts 223°
2026-05-07 13:02 51.46202 11.02042 36020 ft 466 kts 239°
2026-05-07 13:03 51.43131 10.92888 36014 ft 467 kts 242°
2026-05-07 13:03 51.40140 10.83730 36016 ft 467 kts 241°
2026-05-07 13:04 51.37023 10.74602 36014 ft 467 kts 240°
2026-05-07 13:04 51.33851 10.65519 36013 ft 467 kts 240°
2026-05-07 13:05 51.30668 10.56465 36019 ft 467 kts 240°
2026-05-07 13:05 51.27486 10.47411 36017 ft 467 kts 241°
2026-05-07 13:06 51.24646 10.38148 36015 ft 467 kts 245°
2026-05-07 13:06 51.22009 10.28664 36015 ft 468 kts 246°
2026-05-07 13:07 51.19375 10.19175 36014 ft 468 kts 246°
2026-05-07 13:07 51.16713 10.09713 36014 ft 467 kts 245°
2026-05-07 13:08 51.14038 10.00281 36020 ft 467 kts 245°
2026-05-07 13:08 51.11366 9.90910 36016 ft 467 kts 245°
2026-05-07 13:09 51.08676 9.81507 36023 ft 466 kts 245°
2026-05-07 13:09 51.05984 9.72132 36027 ft 466 kts 245°
2026-05-07 13:10 51.03282 9.62762 36034 ft 466 kts 245°
2026-05-07 13:10 51.00608 9.53455 36039 ft 465 kts 245°
2026-05-07 13:11 50.97938 9.44107 36042 ft 465 kts 245°
2026-05-07 13:11 50.95267 9.34765 36043 ft 465 kts 245°
2026-05-07 13:12 50.93048 9.26992 35747 ft 468 kts 246°
2026-05-07 13:12 50.91737 9.22283 34940 ft 465 kts 246°
2026-05-07 13:12 50.90448 9.17577 34164 ft 464 kts 247°
2026-05-07 13:13 50.89170 9.12887 33302 ft 465 kts 247°
2026-05-07 13:13 50.87886 9.08169 32582 ft 467 kts 247°
2026-05-07 13:13 50.86596 9.03443 31972 ft 468 kts 247°
2026-05-07 13:13 50.85301 8.98712 31377 ft 469 kts 247°
2026-05-07 13:14 50.83995 8.93957 30793 ft 470 kts 246°
2026-05-07 13:14 50.82689 8.89209 30219 ft 470 kts 247°
2026-05-07 13:14 50.81411 8.84529 29522 ft 468 kts 247°
2026-05-07 13:14 50.80136 8.79832 28845 ft 463 kts 247°
2026-05-07 13:15 50.78875 8.75169 28214 ft 459 kts 247°
2026-05-07 13:15 50.77626 8.70547 27594 ft 454 kts 247°
2026-05-07 13:15 50.76389 8.65975 26977 ft 450 kts 247°
2026-05-07 13:15 50.75163 8.61448 26388 ft 446 kts 247°
2026-05-07 13:16 50.73941 8.56946 25779 ft 442 kts 247°
2026-05-07 13:16 50.72731 8.52500 25188 ft 439 kts 247°
2026-05-07 13:16 50.71545 8.48151 24606 ft 435 kts 247°
2026-05-07 13:16 50.70346 8.43786 24035 ft 431 kts 245°
2026-05-07 13:17 50.68936 8.39607 23388 ft 429 kts 239°
2026-05-07 13:17 50.67319 8.35668 22682 ft 425 kts 236°
2026-05-07 13:17 50.65632 8.31868 22042 ft 421 kts 235°
2026-05-07 13:17 50.63934 8.28126 21420 ft 418 kts 235°
2026-05-07 13:18 50.62251 8.24406 20806 ft 414 kts 235°
2026-05-07 13:18 50.60617 8.20767 20210 ft 411 kts 236°
2026-05-07 13:18 50.58980 8.17098 19610 ft 408 kts 236°
2026-05-07 13:18 50.57364 8.13458 19022 ft 405 kts 236°
2026-05-07 13:19 50.55759 8.09839 18436 ft 402 kts 236°
2026-05-07 13:19 50.54167 8.06251 17788 ft 398 kts 236°
2026-05-07 13:19 50.52591 8.02701 17181 ft 394 kts 236°
2026-05-07 13:19 50.51026 7.99179 16591 ft 390 kts 236°
2026-05-07 13:20 50.49480 7.95705 16023 ft 386 kts 236°
2026-05-07 13:20 50.47947 7.92265 15467 ft 382 kts 236°
2026-05-07 13:20 50.46431 7.88869 14920 ft 379 kts 236°
2026-05-07 13:20 50.44924 7.85495 14372 ft 375 kts 236°
2026-05-07 13:21 50.43461 7.82132 13835 ft 372 kts 239°
2026-05-07 13:21 50.42169 7.78676 13126 ft 361 kts 242°
2026-05-07 13:21 50.40988 7.75234 11636 ft 358 kts 244°
2026-05-07 13:21 50.39856 7.71795 10353 ft 353 kts 244°
2026-05-07 13:22 50.38751 7.68417 9542 ft 335 kts 244°
2026-05-07 13:22 50.37728 7.65302 9403 ft 313 kts 244°
2026-05-07 13:22 50.36752 7.62341 9269 ft 299 kts 244°
2026-05-07 13:22 50.35814 7.59504 9109 ft 286 kts 243°
2026-05-07 13:23 50.34926 7.56827 8965 ft 275 kts 243°
2026-05-07 13:23 50.34056 7.54208 8715 ft 267 kts 244°
2026-05-07 13:23 50.33217 7.51688 8478 ft 254 kts 244°
2026-05-07 13:23 50.32395 7.49311 8253 ft 244 kts 238°
2026-05-07 13:24 50.31234 7.47363 8024 ft 246 kts 219°
2026-05-07 13:24 50.29836 7.45821 7798 ft 246 kts 214°
2026-05-07 13:24 50.28294 7.44673 7538 ft 247 kts 195°
2026-05-07 13:24 50.26592 7.44578 7268 ft 247 kts 168°
2026-05-07 13:25 50.25068 7.45775 7031 ft 247 kts 137°
2026-05-07 13:25 50.23981 7.47816 6796 ft 249 kts 125°
2026-05-07 13:25 50.22843 7.49827 6560 ft 246 kts 142°
2026-05-07 13:25 50.21312 7.50946 6310 ft 244 kts 172°
2026-05-07 13:26 50.19659 7.50697 6062 ft 239 kts 202°
2026-05-07 13:26 50.18176 7.49515 5825 ft 240 kts 212°
2026-05-07 13:26 50.16778 7.48160 5644 ft 228 kts 214°
2026-05-07 13:26 50.15498 7.46913 5367 ft 207 kts 213°
2026-05-07 13:27 50.14299 7.45773 5131 ft 199 kts 213°
2026-05-07 13:27 50.13134 7.44620 5001 ft 198 kts 215°
2026-05-07 13:27 50.11978 7.43458 4975 ft 198 kts 214°
2026-05-07 13:27 50.10819 7.42297 4981 ft 198 kts 215°
2026-05-07 13:28 50.09663 7.41139 4907 ft 199 kts 214°
2026-05-07 13:28 50.08545 7.40022 4609 ft 180 kts 214°
2026-05-07 13:28 50.07523 7.39004 4364 ft 171 kts 215°
2026-05-07 13:28 50.06534 7.38015 4152 ft 168 kts 215°
2026-05-07 13:29 50.05563 7.37044 3932 ft 168 kts 215°
2026-05-07 13:29 50.04581 7.36064 3706 ft 168 kts 214°
2026-05-07 13:29 50.03597 7.35083 3513 ft 168 kts 214°
2026-05-07 13:29 50.02619 7.34107 3275 ft 166 kts 214°
2026-05-07 13:30 50.01645 7.33137 3024 ft 166 kts 214°
2026-05-07 13:30 50.00673 7.32166 2835 ft 166 kts 214°
2026-05-07 13:30 49.99701 7.31202 2629 ft 165 kts 214°
2026-05-07 13:30 49.98738 7.30246 2349 ft 164 kts 214°
2026-05-07 13:31 49.97780 7.29288 2137 ft 164 kts 215°
2026-05-07 13:31 49.96824 7.28331 1880 ft 162 kts 214°
2026-05-07 13:31 49.95878 7.27386 1652 ft 161 kts 214°
2026-05-07 13:31 49.95042 7.26558 1629 ft 116 kts 212°
2026-05-07 13:32 49.94487 7.26012 1634 ft 76 kts 213°
2026-05-07 13:32 49.94154 7.25683 1638 ft 31 kts 212°
2026-05-07 13:32 49.94033 7.25562 1639 ft 17 kts 212°
2026-05-07 13:32 49.93961 7.25521 1638 ft 7 kts 173°
2026-05-07 13:33 49.93925 7.25567 1638 ft 8 kts 127°
2026-05-07 13:33 49.93883 7.25668 1640 ft 15 kts 122°
2026-05-07 13:33 49.93838 7.25780 1641 ft 11 kts 122°
2026-05-07 13:33 49.93818 7.25851 1641 ft 4 kts 91°
2026-05-07 13:34 49.93841 7.25897 1641 ft 7 kts 36°
2026-05-07 13:34 49.94008 7.26070 1638 ft 12 kts 33°
2026-05-07 13:34 49.94091 7.26154 1636 ft 14 kts 34°
2026-05-07 13:35 49.94167 7.26231 1639 ft 14 kts 34°
2026-05-07 13:35 49.94259 7.26327 1639 ft 18 kts 33°
2026-05-07 13:35 49.94359 7.26429 1632 ft 15 kts 34°
2026-05-07 13:35 49.94440 7.26513 1634 ft 16 kts 33°
2026-05-07 13:36 49.94515 7.26589 1630 ft 11 kts 33°
2026-05-07 13:36 49.94568 7.26636 1631 ft 5 kts 19°
2026-05-07 13:36 49.94593 7.26638 1631 ft 2 kts 355°
2026-05-07 13:36 49.94617 7.26634 1629 ft 5 kts 357°
2026-05-07 13:37 49.94653 7.26652 1628 ft 6 kts 28°
2026-05-07 13:37 49.94714 7.26713 1629 ft 15 kts 32°
2026-05-07 13:37 49.94800 7.26798 1629 ft 13 kts 33°
2026-05-07 13:37 49.94870 7.26868 1630 ft 13 kts 32°
2026-05-07 13:38 49.94948 7.26946 1628 ft 12 kts 33°
2026-05-07 13:38 49.95036 7.27033 1628 ft 12 kts 32°
2026-05-07 13:38 49.95084 7.27080 1622 ft 6 kts 36°
2026-05-07 13:38 49.95093 7.27098 1620 ft 2 kts 58°
2026-05-07 13:39 49.95096 7.27120 1623 ft 2 kts 81°
2026-05-07 13:39 49.95090 7.27137 1619 ft 3 kts 117°
2026-05-07 13:39 49.95068 7.27189 1620 ft 5 kts 123°
2026-05-07 13:39 49.95054 7.27222 1624 ft 2 kts 123°
2026-05-07 13:40 49.95052 7.27226 1624 ft 0 kts 123°